This demonstration page uses our WeatherBlox Daily Observations layout. Learn more.

Left ArrowRight Arrow

Hourly Observations for June 12, 2021

Temp ( °F °C ) Dew Point ( °F °C ) Humidity (%) Winds ( mph kmh ) Pressure ( in mb ) Visibility ( mi km ) Precip ( " mm )
12:15 am 00:15 Clear 60 15.4 51 10.8 74 74 NE 6 9 30.02 1016 10 16 N/A
12:35 am 00:35 Clear 59 15 51 10.4 74 74 NE 6 9 30.02 1017 10 16 N/A
12:55 am 00:55 Clear 60 15.3 50 10 71 71 ENE 5 7 30.03 1017 10 16 N/A
1:15 am 01:15 Clear 60 15.6 50 9.9 69 69 N N/A 30.02 1017 10 16 N/A
1:35 am 01:35 Clear 60 15.4 50 9.9 70 70 N N/A 30.04 1017 10 16 N/A
1:55 am 01:55 Clear 59 15.2 50 10 71 71 ENE 6 9 30.04 1017 10 16 N/A
2:15 am 02:15 Clear 57 14.1 49 9.5 74 74 NE 5 7 30.04 1017 10 16 N/A
2:35 am 02:35 Clear 59 15.1 49 9.4 69 69 N N/A 30.04 1017 10 16 N/A
2:55 am 02:55 Clear 58 14.2 50 9.8 75 75 NNE 5 7 30.05 1017 10 16 N/A
3:15 am 03:15 Clear 57 13.9 49 9.7 76 76 NNE 6 9 30.06 1018 10 16 N/A
3:35 am 03:35 Clear 57 13.8 49 9.3 74 74 NNW 3 6 30.06 1018 10 16 N/A
3:55 am 03:55 Clear 56 13.3 49 9.5 78 78 NW 5 7 30.06 1018 10 16 N/A
4:15 am 04:15 Clear 55 13 49 9.5 79 79 N N/A 30.06 1018 10 16 N/A
4:35 am 04:35 Clear 54 12.1 49 9.2 83 83 N N/A 30.06 1018 10 16 N/A
4:55 am 04:55 Clear 53 11.5 49 9.2 86 86 NW 5 7 30.08 1019 10 16 N/A
5:15 am 05:15 Clear 54 12.2 48 9.1 82 82 WNW 7 11 30.07 1018 10 16 N/A
5:35 am 05:35 Clear 53 11.9 48 9 83 83 N N/A 30.09 1019 10 16 N/A
5:55 am 05:55 Clear 54 12.3 48 9 80 80 N N/A 30.09 1019 10 16 N/A
6:15 am 06:15 Sunny 54 12 48 8.9 82 82 N N/A 30.09 1019 10 16 N/A
6:35 am 06:35 Sunny 52 11.3 48 9 86 86 N N/A 30.10 1019 7 11 N/A
6:55 am 06:55 Sunny 54 12.4 49 9.4 82 82 N N/A 30.09 1019 10 16 N/A
7:15 am 07:15 Sunny 58 14.3 51 10.5 78 78 NNE 3 6 30.08 1018 10 16 N/A
7:35 am 07:35 Sunny 60 15.8 52 11.3 75 75 NE 6 9 30.07 1018 10 16 N/A
7:55 am 07:55 Sunny 63 17 53 11.4 70 70 NE 5 7 30.06 1018 10 16 N/A
8:15 am 08:15 Sunny 65 18.6 51 10.5 59 59 E 6 9 30.06 1018 10 16 N/A
8:35 am 08:35 Sunny 67 19.7 51 10.5 56 56 E 7 11 30.06 1018 10 16 N/A
8:55 am 08:55 Sunny 69 20.8 51 10.6 52 52 ESE 7 11 30.05 1018 10 16 N/A
9:15 am 09:15 Sunny 71 21.9 51 10.3 48 48 E 10 17 30.04 1017 10 16 N/A
9:35 am 09:35 Sunny 73 22.6 50 10 45 45 E 9 15 30.05 1017 10 16 N/A
9:55 am 09:55 Sunny 74 23.2 49 9.4 42 42 ESE 9 15 30.04 1017 10 16 N/A
10:15 am 10:15 Sunny 75 23.8 47 8.1 37 37 ESE 10 17 30.04 1017 10 16 N/A
10:35 am 10:35 Sunny 76 24.3 46 7.7 35 35 E 9 15 30.03 1017 10 16 N/A
10:55 am 10:55 Sunny 77 25 46 7.9 34 34 ESE 9 15 30.03 1017 10 16 N/A
11:15 am 11:15 Sunny 78 25.5 44 6.9 31 31 E 12 19 30.02 1017 10 16 N/A
11:35 am 11:35 Sunny 79 26 45 7.3 30 30 E 10 17 30.02 1017 10 16 N/A
11:55 am 11:55 Sunny 79 26.1 45 7.1 30 30 ESE 13 20 30.01 1016 10 16 N/A
12:15 pm 12:15 Sunny 80 26.5 44 6.5 28 28 E 8 13 30.00 1016 10 16 N/A
12:35 pm 12:35 Sunny 80 26.9 44 6.6 27 27 E 10 17 30.00 1016 10 16 N/A
12:55 pm 12:55 Sunny 81 27 43 6 26 26 ESE 8 13 29.99 1016 10 16 N/A
1:15 pm 13:15 Sunny 81 27.1 42 5.8 26 26 SE 10 17 29.99 1016 10 16 N/A
1:35 pm 13:35 Sunny 82 27.6 43 6.3 26 26 ESE 7 11 29.99 1015 10 16 N/A
1:55 pm 13:55 Sunny 82 27.8 45 7.1 27 27 ESE 8 13 29.97 1015 10 16 N/A
2:15 pm 14:15 Sunny 83 28.4 44 6.6 25 25 SE 8 13 29.96 1015 10 16 N/A
2:35 pm 14:35 Sunny 83 28.6 42 5.6 23 23 ESE 7 11 29.95 1014 10 16 N/A
2:55 pm 14:55 Sunny 83 28.6 43 6.1 24 24 ESE 13 20 29.95 1014 10 16 N/A
3:15 pm 15:15 Sunny 84 28.7 43 6.2 24 24 E 13 20 29.94 1014 10 16 N/A
3:35 pm 15:35 Sunny 84 29 43 6.3 24 24 ESE 9 15 29.93 1014 10 16 N/A
3:55 pm 15:55 Sunny 85 29.2 42 5.4 22 22 SE 7 11 29.92 1013 10 16 N/A
4:15 pm 16:15 Sunny 86 29.9 41 4.8 20 20 ESE 10 17 29.92 1013 10 16 N/A
4:35 pm 16:35 Sunny 85 29.6 38 3.6 19 19 ESE 9 15 29.91 1013 10 16 N/A
4:55 pm 16:55 Sunny 86 29.8 38 3.4 18 18 ESE 12 19 29.91 1013 10 16 N/A
5:15 pm 17:15 Sunny 85 29.5 38 3.4 19 19 SSE 8 13 29.90 1013 10 16 N/A
5:35 pm 17:35 Sunny 86 29.9 41 5 21 21 ESE 9 15 29.90 1012 10 16 N/A
5:55 pm 17:55 Sunny 85 29.6 39 3.9 19 19 SE 13 20 29.89 1012 10 16 N/A
6:15 pm 18:15 Sunny 85 29.7 40 4.6 20 20 ESE 9 15 29.89 1012 10 16 N/A
6:35 pm 18:35 Sunny 85 29.5 41 5.2 21 21 SE 9 15 29.88 1012 10 16 N/A
6:55 pm 18:55 Sunny 85 29.5 41 4.8 21 21 SE 10 17 29.88 1012 10 16 N/A
7:15 pm 19:15 Sunny 84 29 42 5.3 22 22 SE 9 15 29.88 1012 10 16 N/A
7:35 pm 19:35 Sunny 84 28.7 44 6.7 25 25 SE 9 15 29.89 1012 10 16 N/A
7:55 pm 19:55 Sunny 82 28 46 7.9 28 28 SSE 7 11 29.89 1012 10 16 N/A
8:15 pm 20:15 Sunny 81 27 48 8.7 32 32 S 5 7 29.90 1013 10 16 N/A
8:35 pm 20:35 Sunny 79 25.9 48 9 34 34 S 3 6 29.91 1013 10 16 N/A
8:55 pm 20:55 Sunny 77 24.8 49 9.2 37 37 S 5 7 29.93 1013 10 16 N/A
9:15 pm 21:15 Clear 76 24.2 48 9 38 38 SSE 3 6 29.93 1014 10 16 N/A
9:35 pm 21:35 Clear 72 22.4 50 9.9 45 45 N N/A 29.95 1014 10 16 N/A
9:55 pm 21:55 Clear 72 22.3 49 9.6 45 45 SSE 5 7 29.96 1014 10 16 N/A
10:15 pm 22:15 Clear 71 21.4 50 9.8 48 48 SE 5 7 29.98 1015 10 16 N/A
10:35 pm 22:35 Clear 69 20.8 50 10.1 51 51 SE 5 7 29.98 1015 10 16 N/A
10:55 pm 22:55 Clear 66 19 51 10.8 59 59 ESE 5 7 30.00 1016 10 16 N/A
11:15 pm 23:15 Clear 65 18.5 52 11 62 62 ESE 7 11 30.00 1016 10 16 N/A
11:35 pm 23:35 Clear 64 18 51 10.5 62 62 ESE 8 13 30.00 1016 10 16 N/A
11:55 pm 23:55 Clear 64 18 51 10.5 62 62 ESE 8 13 30.00 1016 10 16 N/A

Powered by AerisWeather